Regional Weather Roundup
Issued by NWS

Home | Current Version | Previous Version | Graphics & Text | Print | Product List | Glossary Off
Versions: 1 2 3 4 5 6 7 8 9 10 11 12 13 14 15 16 17 18 19 20 21 22 23 24 25 26 27 28 29 30 31 32 33 34 35 36 37 38 39 40 41 42 43 44 45 46 47 48 49 50

000
ASUS43 KTOP 301959
RWRKS

WEATHER ROUNDUP FOR KANSAS
NATIONAL WEATHER SERVICE GOODLAND KS
300 PM CDT SUN AUG 30 2015

NOTE:  "FAIR" INDICATES FEW OR NO CLOUDS BELOW 12,000 FEET WITH NO
SIGNIFICANT WEATHER AND/OR OBSTRUCTIONS TO VISIBILITY.

KSZ001>006-013>018-027>032-041>047-302100-
NORTHWEST KANSAS

CITY           SKY/WX    TMP DP  RH WIND       PRES   REMARKS
GOODLAND       SUNNY     91  39  16 S20G26    30.02F HAZE
HAYS           SUNNY     88  55  33 SE14      30.00F
HILL CITY      SUNNY     94  46  19 S10G24    29.99F
RUSSELL        SUNNY     84  58  40 SE8G16    30.00F
$$

KSZ061>065-074>080-084>089-302100-
SOUTHWEST KANSAS

CITY           SKY/WX    TMP DP  RH WIND       PRES   REMARKS
DODGE CITY     SUNNY     88  50  27 E7        30.03F
ELKHART          N/A     89  56  32 S13         N/A
GARDEN CITY    SUNNY     90  43  19 S13G18    30.03F
GREAT BEND     SUNNY     82  59  44 SE5       30.01F
LIBERAL        SUNNY     90  43  19 SE6       30.05F
PRATT          SUNNY     81  55  41 CALM      30.03F
$$

KSZ066>073-081>083-090>101-302100-
SOUTHEAST KANSAS

CITY           SKY/WX    TMP DP  RH WIND       PRES   REMARKS
CHANUTE        PTSUNNY   83  70  64 MISG      30.00F
COFFEYVILLE    CLOUDY    85  71  63 N6        29.99S
HUTCHINSON     SUNNY     81  65  58 SE7G14    30.02F
NEWTON         PTSUNNY   82  63  51 SE7       30.04F
PARSONS        PTSUNNY   82  71  69 CALM      30.00F
WICHITA INTL   MOSUNNY   82  64  54 NE8       30.00F
WICHITA JABRA  PTSUNNY   78  66  66 E8        30.01F
$$

KSZ007>012-019>026-033>040-048>060-102>105-302100-
NORTHEAST KANSAS

CITY           SKY/WX    TMP DP  RH WIND       PRES   REMARKS
CONCORDIA      SUNNY     76  65  68 SE9       30.03F
EMPORIA        MOSUNNY   79  68  69 E9        30.02F
LAWRENCE       MOSUNNY   84  68  58 VRB5      30.00F
MANHATTAN      CLOUDY    79  67  66 VRB3      30.02F
OLATHE IND     SUNNY     82  70  66 SE8       30.02F
OLATHE EXE     PTSUNNY   81  70  69 SE8       30.01F
SALINA         SUNNY     80  65  59 SE8       30.01F
TOPEKA BILLARD SUNNY     82  69  64 CALM      30.01F
TOPEKA FORBES  PTSUNNY   80  68  66 CALM      30.02F
$$


USA.gov is the U.S. government's official web portal to all federal, state and local government web resources and services.